Location: Lecco
(45.8566°N, 9.3977°E)
Time: 13:20:24
(UTC+02:00)

Vanguard 2 Rocket - Pass Details

Date: 21 August 2020
Orbit: 554 x 3326 km, 32.9° (Epoch: 24 September)

Event Time Altitude Azimuth Distance (km) Brightness Sun altitude
Rises 20:57:27 0° 251° (WSW) 3,483 10.7 -6.9°
Reaches altitude 10° 21:01:08 10° 225° (SW) 2,940 9.8 -7.5°
Maximum altitude 21:04:36 14° 197° (SSW) 3,039 9.5 -8.0°
Drops below altitude 10° 21:08:53 10° 169° (S) 3,825 9.7 -8.7°
Enters shadow 21:14:15 - 151° (SSE) 5,240 10.3 -9.5°
Sets 21:15:13 0° 149° (SSE) 5,510 - -9.7°
